Torna al catalogo

KUIPER-00289

AttivoComunicazioniLEO
NORAD 68591·PAYLOAD·🇺🇸 United States

Lanciato Apr 4, 2026 da Cape Canaveral Space Force Station

Loading…

Prossimi Passaggi (prossime 24 ore)

TLE

AggiornatoSource: CelesTrak SupGP

Epoca: Sep 14, 2026, 23:00 UTC

1 68591C 26072U   26257.95879630  .00003135  00000+0  41041-3 0  2576
2 68591  51.8971 141.1775 0001106  93.8997 275.8618 14.79927069    13

Traccia KUIPER-00289 in tempo reale con AllMySat

Download on the App Store